Regional Weather Roundup
Issued by NWS

Home | Current Version | Previous Version | Graphics & Text | Print | Product List | Glossary On
Versions: 1 2 3 4 5 6 7 8 9 10 11 12 13 14 15 16 17 18 19 20 21 22 23 24 25 26 27 28 29 30 31 32 33 34 35 36 37 38 39 40 41 42 43 44 45 46 47 48 49 50
000
ASUS43 KLOT 250000
RWRIL

ILLINOIS REGIONAL WEATHER ROUNDUP
NATIONAL WEATHER SERVICE CHICAGO/ROMEOVILLE IL
700 PM CDT THU APR 24 2014

NOTE: "FAIR" INDICATES FEW OR NO CLOUDS BELOW 12,000 FEET WITH NO
SIGNIFICANT WEATHER AND/OR OBSTRUCTIONS TO VISIBILITY.

* THESE STATIONS ARE NOT UNDER NWS QUALITY CONTROL. THEY ALSO MAY NOT
  REPORT WEATHER SUCH AS PRECIPITATION OR FOG.

ILZ001-002-007-009-015-016-024-250100-
NORTHWEST ILLINOIS

CITY           SKY/WX    TMP DP  RH WIND       PRES   REMARKS
MOLINE         RAIN      56  52  86 CALM      29.64S FOG
6HR MIN TEMP:  56; 6HR MAX TEMP:  60; 6HR PCP:  0.14;

STERLING*      CLOUDY    55  50  82 NE5       29.64F
$$

ILZ003-004-008-010-011-017-018-250100-
NORTH CENTRAL ILLINOIS

CITY           SKY/WX    TMP DP  RH WIND       PRES   REMARKS
ROCKFORD       CLOUDY    61  39  44 SE10      29.69S
6HR MIN TEMP:  57; 6HR MAX TEMP:  63; 6HR PCP:  0.04;

$$

ILZ005-006-012>014-019>023-250100-
NORTHEAST ILLINOIS

CITY           SKY/WX    TMP DP  RH WIND       PRES   REMARKS
CHICAGO-OHARE  CLOUDY    61  28  28 SE17      29.71F
6HR MIN TEMP:  61; 6HR MAX TEMP:  64;

CHICAGO-MIDWAY CLOUDY    62  29  28 SE14      29.72F
6HR MIN TEMP:  60; 6HR MAX TEMP:  64;

AURORA         LGT RAIN  62  37  39 SE15G23   29.70F
6HR MIN TEMP:  60; 6HR MAX TEMP:  68; 6HR PCP: TRACE;

WAUKEGAN       LGT RAIN  46  34  62 E8        29.73F
6HR MIN TEMP:  46; 6HR MAX TEMP:  55; 6HR PCP: TRACE;

DUPAGE AIRPORT LGT RAIN  61  34  36 SE15G24   29.70F
6HR MIN TEMP:  60; 6HR MAX TEMP:  68; 6HR PCP: TRACE;

WHEELING       CLOUDY    62  28  27 SE12      29.73F
6HR MIN TEMP:  61; 6HR MAX TEMP:  64;

NORTHERLY ISL    N/A     55  36  48 SE13        N/A
$$

LMZ740>746-250100-
SOUTHERN LAKE MICHIGAN

STATION/POSITION SKY/WX   TEMP    WIND        PRES    VSBY  WAVE
                          AIR SEA DIR/SP/G                  HT/PER
                          (F)     (DEG/KT/KT) (MB)    (MI)  (FT/S)
WAUKEGAN HARBOR            44     180/  4/  7 1009.1S
HARRISON CRIB              53     150/ 15/ 18   N/A
BURNHAM HARBOR             54     120/  9/ 16   N/A
CALUMET HARBOR             61     140/ 14/ 20 1007.8F
MICHIGAN CITY              60     110/ 18/ 28   N/A
$$

ILZ025>027-034>036-040-047-049-050-058-095>099-250100-
WEST-CENTRAL ILLINOIS

CITY           SKY/WX    TMP DP  RH WIND       PRES   REMARKS
QUINCY         LGT RAIN  57  56  96 E12       29.57F
$$

ILZ028>032-037-038-041>044-048-051>054-059>061-250100-
CENTRAL ILLINOIS

CITY           SKY/WX    TMP DP  RH WIND       PRES   REMARKS
DECATUR        CLOUDY    71  42  35 SE16G23   29.64F
PEORIA         LGT RAIN  63  55  75 E7        29.61F
6HR MIN TEMP:  63; 6HR MAX TEMP:  73; 6HR PCP:  0.04;

SPRINGFIELD    CLOUDY    73  44  35 SE16      29.59F
6HR MIN TEMP:  73; 6HR MAX TEMP:  76; 6HR PCP: TRACE;

TAYLORVILLE    NOT AVBL
$$

ILZ033-039-045-046-055>057-062-063-250100-
EAST-CENTRAL ILLINOIS

CITY           SKY/WX    TMP DP  RH WIND       PRES   REMARKS
CHAMPAIGN      CLOUDY    67  43  41 SE15      29.67F
MATTOON        CLOUDY    69  40  34 SE14      29.67F
$$

ILZ079-100>102-250100-
SOUTHWEST ILLINOIS

CITY           SKY/WX    TMP DP  RH WIND       PRES   REMARKS
ALTON          HVY RAIN  68  55  64 W35G46    29.66R FOG
CAHOKIA*       RAIN      60  55  83 NW26G43   29.66R
$$

ILZ064>066-069>071-074>076-080>082-084>086-088>090-092>094-250100-
SOUTH-CENTRAL ILLINOIS

CITY           SKY/WX    TMP DP  RH WIND       PRES   REMARKS
CARBONDALE     CLOUDY    74  49  41 S15G29    29.65F
6HR MIN TEMP:  73; 6HR MAX TEMP:  77;

MT. VERNON     CLOUDY    73  46  38 S8        29.67F
$$

ILZ067-068-072-073-078-083-087-091-250100-
SOUTHEAST ILLINOIS

CITY           SKY/WX    TMP DP  RH WIND       PRES   REMARKS
$$

ABBREVIATIONS USED IN REMARKS
   TC - TEMPERATURE IN CELSIUS
  WCI - WIND CHILL INDEX
   HX - HEAT INDEX
  VSB - VISIBILITY
$$




USA.gov is the U.S. government's official web portal to all federal, state and local government web resources and services.